Location: Unspecified
(0.0000°N, 0.0000°E)
Time: 05:48:30
(UTC+00:00)

BlueWalker 3 - Visible Passes

Search period start: 17 April 2026 00:00
Search period end: 27 April 2026 00:00
Orbit: 449 x 457 km, 53.2° (Epoch: 16 April)

Date Brightness Start Highest point End Pass type
(mag) Time Alt. Az. Time Alt. Az. Time Alt. Az.
17 Apr 3.7 18:30:22 10° NNE 18:32:28 15° NE 18:34:22 11° E visible
17 Apr 4.8 20:07:02 10° WNW 20:08:06 15° W 20:08:06 15° W visible
18 Apr 3.4 19:29:57 10° WNW 19:33:08 30° SW 19:34:01 26° SSW visible
19 Apr 2.6 18:53:09 10° NW 18:56:37 49° SW 18:59:57 11° SSE visible
20 Apr 1.8 18:16:32 10° NW 18:20:06 84° WSW 18:23:42 10° SSE visible
22 Apr 2.9 05:21:59 10° SSW 05:25:23 43° SE 05:28:45 10° NE visible
23 Apr 3.7 04:45:48 10° S 04:48:51 26° SE 04:51:52 10° ENE visible
24 Apr 4.2 04:11:40 16° SE 04:12:17 17° SE 04:14:41 10° E visible
25 Apr 2.9 05:11:13 17° W 05:12:56 25° WNW 05:15:54 10° N visible
26 Apr 2.5 04:36:57 37° NNW 04:36:57 37° NNW 04:39:44 10° NNE visible
